User: anonymous   Login
Location: Chaumontel
(49.1247°N, 2.4324°E)
Time: 01:43:16
(UTC+00:00)
Language:

IRIDIUM 103 - Orbit

View from above orbital plane
View from above orbital plane
View from above satellite
View from above satellite

Ground track
Ground track

The orbit data is extracted from the following two-line orbital elements,

1 41918U 17003B   24106.37289421  .00000041  00000-0  75662-5 0  9999
2 41918  86.3965  59.7361 0002609  90.2239 269.9255 14.34216001379598
Epoch (UTC): 15 April 2024 08:56:58
Eccentricity: 0.0002609
inclination: 86.3965°
perigee height: 776 km
apogee height: 779 km
right ascension of ascending node: 59.7361°
argument of perigee: 90.2239°
revolutions per day: 14.34216001
mean anomaly at epoch: 269.9255°
orbit number at epoch: 37959

The dashed part of the orbit path shows where the satellite is in the earth's shadow,  

DLR